Simultaneous Nadir Overpasses (SNOs) Predictions

Prediction of SNOs between GOES-17 and NOAA-20 Satellite Orbit:

Table of predicted SNOs for the next 14.0 days since TLE Epoch: 2/27/2021
Index Date Time (GOES-17) GOES-17 Lat,Lon NOAA-20 Lat,Lon Distance(km) Time Diff (sec)
1 02/27/2021 22:24:08 0.04,-137.21 0.67,-134.55 304.64 80
2 03/01/2021 10:45:56 -0.04,-137.22 0.53,-139.81 294.73 80
3 03/02/2021 10:24:30 -0.04,-137.22 -0.45,-135.27 221.91 80
4 03/03/2021 22:46:26 0.04,-137.22 -0.72,-140.57 382.71 80
5 03/04/2021 22:30:22 0.04,-137.21 0.31,-136.04 133.53 80
6 03/06/2021 10:52:09 -0.03,-137.20 0.88,-141.30 467.13 80
7 03/07/2021 10:30:45 -0.03,-137.20 -0.15,-136.78 48.68 80
8 03/09/2021 22:33:55 0.01,-137.16 -0.10,-137.52 41.70 80
9 03/10/2021 22:17:50 0.01,-137.15 0.94,-133.00 473.97 80
10 03/12/2021 10:39:37 -0.00,-137.14 0.25,-138.26 127.42 80
